Location: Carrer del Canonge
(41.4901°N, 2.2931°E)
Time: 13:54:14
(UTC+00:00)

ISS - Pass Details

Date: 27 November 2020
Orbit: 418 x 419 km, 51.6° (Epoch: 18 January)

Event Time Altitude Azimuth Distance (km) Brightness Sun altitude
Rises 17:47:37 0° 286° (WNW) 2,365 1.1 -15.5°
Reaches altitude 10° 17:50:18 10° 309° (NW) 1,502 -0.5 -16.0°
Maximum altitude 17:52:31 16° 350° (N) 1,180 -1.5 -16.4°
Enters shadow 17:53:20 15° 8° (N) 1,229 -1.6 -16.6°
